FW8882 Weather Reports


time (UTC)temp
F
wind
direction
speed
knots
gust
knots
rain 1hr
in
rain 24hr
in
rain mn
in
humidity
%
barometer
mb
20260508185006 65 254 1.7 7.0 0.00 0.00 0.00 55 1009.5
20260508184504 66 261 0.9 1.7 0.00 0.00 0.00 58 1009.6
20260508184000 67 187 0.9 2.6 0.00 0.00 0.00 56 1009.3
20260508183456 67 282 0.0 1.7 0.00 0.00 0.00 63 1009.3
20260508182951 66 336 1.7 6.1 0.00 0.00 0.00 57 1009.2
20260508182449 66 338 0.9 6.1 0.00 0.00 0.00 60 1009.4
20260508181944 66 344 0.9 2.6 0.00 0.00 0.00 57 1009.7
20260508181440 66 356 1.7 6.1 0.00 0.00 0.00 58 1009.8
20260508180938 65 293 0.9 1.7 0.00 0.00 0.00 56 1009.9
20260508180435 66 315 0.0 2.6 0.00 0.00 0.00 58 1010.1
20260508175931 64 308 1.7 2.6 0.00 0.00 0.00 59 1010.1
20260508175427 64 354 0.0 0.9 0.00 0.00 0.00 61 1010.4
20260508174926 64 331 0.0 0.9 0.00 0.00 0.00 59 1010.5
20260508174423 64 344 0.9 0.9 0.00 0.00 0.00 61 1010.4
20260508173919 64 210 1.7 2.6 0.00 0.00 0.00 60 1010.7
20260508173417 64 287 0.9 2.6 0.00 0.00 0.00 59 1011.1
20260508172912 63 199 1.7 4.3 0.00 0.00 0.00 61 1010.9
20260508172410 62 0 0.9 0.9 0.00 0.00 0.00 61 1010.9
20260508171906 62 0 0.9 0.9 0.00 0.00 0.00 61 1011.1
20260508171402 62 0 0.9 0.9 0.00 0.00 0.00 61 1011.3
20260508170859 62 322 0.0 0.9 0.00 0.00 0.00 59 1011.3
20260508170357 61 354 0.9 0.9 0.00 0.00 0.00 61 1011.5
20260508165853 61 330 0.0 0.9 0.00 0.00 0.00 61 1011.5
20260508165351 61 336 0.0 0.9 0.00 0.00 0.00 61 1011.7
20260508164846 61 342 0.0 1.7 0.00 0.00 0.00 59 1011.8
20260508164344 61 336 0.0 1.7 0.00 0.00 0.00 60 1011.9
20260508163841 62 313 0.9 2.6 0.00 0.00 0.00 59 1011.6
20260508163339 63 322 0.9 1.7 0.00 0.00 0.00 60 1011.7
20260508162835 62 287 0.9 1.7 0.00 0.00 0.00 61 1011.9
20260508162332 62 348 0.0 1.7 0.00 0.00 0.00 61 1011.7
20260508161829 62 347 0.0 0.9 0.00 0.00 0.00 61 1011.7
20260508161326 62 324 1.7 1.7 0.00 0.00 0.00 59 1011.8
20260508160823 62 341 0.0 0.9 0.00 0.00 0.00 61 1011.7
20260508160322 61 299 0.9 1.7 0.00 0.00 0.00 63 1012.1
20260508155818 60 320 0.9 1.7 0.00 0.00 0.00 60 1012.2
20260508155315 60 274 2.6 4.3 0.00 0.00 0.00 60 1012.4
20260508154812 60 317 1.7 1.7 0.00 0.00 0.00 58 1012.2
20260508154310 60 304 0.0 5.2 0.00 0.00 0.00 64 1012.3
20260508153806 59 299 2.6 2.6 0.00 0.00 0.00 62 1012.2
20260508153303 59 320 0.9 0.9 0.00 0.00 0.00 67 1012.0
20260508152759 58 193 1.7 2.6 0.00 0.00 0.00 64 1012.1
20260508152255 57 247 2.6 5.2 0.00 0.00 0.00 64 1012.0
20260508151751 57 340 0.0 0.9 0.00 0.00 0.00 72 1012.0
20260508151249 56 124 0.0 0.9 0.00 0.00 0.00 70 1012.1
20260508150745 56 324 0.0 0.9 0.00 0.00 0.00 72 1012.1
20260508150242 55 334 0.0 0.9 0.00 0.00 0.00 74 1012.2
20260508145738 55 345 0.9 0.9 0.00 0.00 0.00 72 1012.4
20260508145235 55 347 0.0 0.0 0.00 0.00 0.00 73 1012.3
20260508144731 54 0 0.0 0.9 0.00 0.00 0.00 74 1012.5
20260508144230 54 325 0.9 2.6 0.00 0.00 0.00 72 1012.5
20260508143727 53 320 0.0 1.7 0.00 0.00 0.00 74 1012.6
20260508143224 53 340 0.0 0.0 0.00 0.00 0.00 74 1012.4
20260508142720 53 341 0.0 0.0 0.00 0.00 0.00 74 1012.5
20260508142217 52 334 0.0 0.9 0.00 0.00 0.00 74 1012.3
20260508141713 52 332 0.9 0.9 0.00 0.00 0.00 73 1012.5
20260508141211 52 339 0.0 0.0 0.00 0.00 0.00 75 1012.6
20260508140708 52 344 0.0 0.0 0.00 0.00 0.00 75 1012.6
20260508140205 52 343 0.0 1.7 0.00 0.00 0.00 74 1012.6
20260508135701 52 352 0.9 0.9 0.00 0.00 0.00 75 1012.5
20260508135202 51 342 0.0 2.6 0.00 0.00 0.00 73 1012.4
20260508134658 51 316 0.0 0.0 0.00 0.00 0.00 75 1012.6
20260508134155 51 336 0.0 0.0 0.00 0.00 0.00 75 1012.6
20260508133652 51 343 0.0 0.9 0.00 0.00 0.00 72 1012.5
20260508133149 51 337 0.0 0.9 0.00 0.00 0.00 75 1012.6
20260508132647 51 348 1.7 2.6 0.00 0.00 0.00 73 1012.5
20260508132144 51 344 0.0 0.0 0.00 0.00 0.00 77 1012.3
20260508131640 51 353 0.0 0.9 0.00 0.00 0.00 77 1012.1
20260508131136 51 333 0.0 0.9 0.00 0.00 0.00 77 1012.3
20260508130633 51 326 0.0 0.9 0.00 0.00 0.00 77 1012.4
20260508130130 51 342 0.0 0.9 0.00 0.00 0.00 78 1012.3
20260508125625 51 327 0.0 0.0 0.00 0.00 0.00 78 1012.4
20260508125123 51 217 0.9 1.7 0.00 0.00 0.00 77 1012.3
20260508124621 51 338 0.0 0.9 0.00 0.00 0.00 78 1012.2
20260508124118 50 344 0.0 0.0 0.00 0.00 0.00 79 1012.4
20260508123616 50 338 0.0 0.0 0.00 0.00 0.00 79 1012.4
20260508123113 50 356 0.0 0.9 0.00 0.00 0.00 77 1012.4
20260508122609 50 343 0.0 0.0 0.00 0.00 0.00 80 1012.1
20260508122106 49 303 0.0 0.9 0.00 0.00 0.00 78 1012.0
20260508121605 49 323 0.9 1.7 0.00 0.00 0.00 78 1012.1
20260508121103 48 327 0.9 1.7 0.00 0.00 0.00 79 1012.2
20260508120600 48 339 0.0 0.9 0.00 0.00 0.00 80 1012.1
20260508120058 48 332 0.0 0.0 0.00 0.00 0.00 80 1012.2
20260508115555 48 335 0.0 0.9 0.00 0.00 0.00 80 1012.1
20260508115051 47 342 0.0 1.7 0.00 0.00 0.00 79 1012.3
20260508114549 47 316 0.0 0.9 0.00 0.00 0.00 80 1012.1
20260508114045 47 340 0.0 1.7 0.00 0.00 0.00 80 1012.1
20260508113542 46 358 0.0 0.9 0.00 0.00 0.00 80 1012.1
20260508113041 46 342 0.0 0.9 0.00 0.00 0.00 80 1011.9
20260508112536 46 323 0.0 0.9 0.00 0.00 0.00 80 1011.8
20260508112033 46 339 0.0 0.9 0.00 0.00 0.00 81 1011.7
20260508111530 46 338 0.0 0.9 0.00 0.00 0.00 83 1011.8
20260508111027 45 338 0.0 0.0 0.00 0.00 0.00 82 1011.7
20260508110525 44 341 0.0 0.0 0.00 0.00 0.00 83 1011.8
20260508110021 43 343 0.0 0.0 0.00 0.00 0.00 85 1011.7
20260508105516 43 344 0.0 0.0 0.00 0.00 0.00 86 1011.8
20260508105014 42 342 0.0 0.0 0.00 0.00 0.00 85 1011.9
20260508104512 42 344 0.0 0.0 0.00 0.00 0.00 87 1011.6
20260508104007 42 343 0.0 0.0 0.00 0.00 0.00 87 1011.7
20260508103504 42 345 0.0 0.0 0.00 0.00 0.00 86 1011.6
20260508103002 42 343 0.0 0.0 0.00 0.00 0.00 86 1011.6
20260508102500 42 344 0.0 0.0 0.00 0.00 0.00 86 1011.6
20260508101956 42 342 0.0 0.0 0.00 0.00 0.00 86 1011.4
20260508101454 42 345 0.0 0.0 0.00 0.00 0.00 86 1011.3
20260508100951 42 354 0.0 0.0 0.00 0.00 0.00 85 1011.6
20260508100450 42 345 0.0 0.0 0.00 0.00 0.00 86 1011.4
20260508095945 42 345 0.0 0.0 0.00 0.00 0.00 85 1011.2
20260508095443 42 345 0.0 0.0 0.00 0.00 0.00 85 1011.6
20260508094940 42 343 0.0 0.0 0.00 0.00 0.00 85 1011.3
20260508094437 42 346 0.0 0.0 0.00 0.00 0.00 85 1011.4
20260508093933 42 343 0.0 0.0 0.00 0.00 0.00 84 1011.3
20260508093431 42 338 0.0 0.0 0.00 0.00 0.00 85 1011.4
20260508092928 42 344 0.0 0.0 0.00 0.00 0.00 85 1011.6
20260508092426 42 345 0.0 0.0 0.00 0.00 0.00 85 1011.4
20260508091925 42 344 0.0 0.0 0.00 0.00 0.00 84 1011.5
20260508091421 42 344 0.0 0.0 0.00 0.00 0.00 84 1011.6
20260508090918 42 341 0.0 0.0 0.00 0.00 0.00 85 1011.5
20260508090417 42 344 0.0 0.0 0.00 0.00 0.00 85 1011.5
20260508085912 42 344 0.0 0.0 0.00 0.00 0.00 85 1011.5
20260508085409 42 344 0.0 0.0 0.00 0.00 0.00 85 1011.5
20260508084905 42 344 0.0 0.0 0.00 0.00 0.00 85 1011.6
20260508084402 43 345 0.0 0.0 0.00 0.00 0.00 84 1011.7
20260508083900 43 344 0.0 0.0 0.00 0.00 0.00 83 1011.7
20260508083358 43 343 0.0 0.0 0.00 0.00 0.00 83 1011.6
20260508082856 44 344 0.0 0.0 0.00 0.00 0.00 83 1011.5
20260508082355 44 343 0.0 0.0 0.00 0.00 0.00 83 1011.7
20260508081852 44 344 0.0 0.0 0.00 0.00 0.00 82 1011.6
20260508081348 44 342 0.0 0.0 0.00 0.00 0.00 82 1011.4
20260508080846 44 343 0.0 0.0 0.00 0.00 0.00 82 1011.6
20260508080343 44 343 0.0 0.0 0.00 0.00 0.00 82 1011.4
20260508075840 44 342 0.0 0.0 0.00 0.00 0.00 81 1011.6
20260508075337 44 337 0.0 0.9 0.00 0.00 0.00 81 1011.6
20260508074835 44 342 0.0 0.0 0.00 0.00 0.00 82 1011.5
20260508074331 44 344 0.0 0.0 0.00 0.00 0.00 81 1011.6
20260508073828 44 290 0.9 0.9 0.00 0.00 0.00 80 1011.6
20260508073326 44 343 0.0 0.0 0.00 0.00 0.00 82 1011.7
20260508072822 45 343 0.0 0.0 0.00 0.00 0.00 83 1011.5
20260508072319 45 337 0.9 0.9 0.00 0.00 0.00 81 1011.5
20260508071817 45 343 0.0 0.0 0.00 0.00 0.00 80 1011.7
20260508071315 45 343 0.0 0.0 0.00 0.00 0.00 79 1011.8
20260508070812 45 344 0.0 0.0 0.00 0.00 0.00 80 1011.7
20260508070311 46 344 0.0 0.0 0.00 0.00 0.00 80 1012.0
20260508065807 46 346 0.0 0.0 0.00 0.00 0.00 80 1012.1
20260508065307 46 340 0.0 0.0 0.00 0.00 0.00 80 1011.9
20260508064803 46 347 0.0 0.0 0.00 0.00 0.00 81 1012.1
20260508064300 47 344 0.0 0.0 0.00 0.00 0.00 82 1012.0
20260508063758 47 349 0.0 0.0 0.00 0.00 0.00 81 1011.8
20260508063256 47 309 0.9 1.7 0.00 0.00 0.00 82 1011.9
20260508062753 48 336 0.0 0.9 0.00 0.00 0.00 82 1012.2
20260508062250 48 344 0.0 0.0 0.00 0.00 0.00 80 1012.1
20260508061747 48 357 0.0 0.0 0.00 0.00 0.00 80 1012.3
20260508061244 48 337 0.0 0.0 0.00 0.00 0.00 78 1012.5
20260508060741 48 316 0.0 0.9 0.00 0.00 0.00 77 1012.4
20260508060239 48 342 0.0 0.9 0.00 0.00 0.00 79 1012.7
20260508055734 47 345 0.0 1.7 0.00 0.00 0.00 79 1012.8
20260508055231 48 348 0.0 0.9 0.00 0.00 0.00 82 1012.7
20260508054727 48 3 0.9 1.7 0.00 0.00 0.00 79 1012.6
20260508054226 48 359 0.9 0.9 0.00 0.00 0.00 79 1012.6
20260508053722 48 345 0.9 1.7 0.00 0.00 0.00 77 1012.5
20260508053220 47 345 0.0 0.9 0.00 0.00 0.00 78 1012.2
20260508052716 47 348 0.0 0.0 0.00 0.00 0.00 81 1012.3
20260508052213 47 345 0.0 0.0 0.00 0.00 0.00 79 1012.1
20260508051710 47 339 0.0 0.9 0.00 0.00 0.00 79 1012.0
20260508051205 46 344 0.0 0.0 0.00 0.00 0.00 79 1012.2
20260508050702 46 344 0.0 0.0 0.00 0.00 0.00 79 1012.0
20260508050200 46 345 0.0 0.0 0.00 0.00 0.00 81 1011.9
20260508045654 46 344 0.0 0.0 0.00 0.00 0.00 83 1011.9
20260508045153 46 344 0.0 0.0 0.00 0.00 0.00 85 1011.8
20260508044650 46 344 0.0 0.0 0.00 0.00 0.00 84 1012.1
20260508044146 46 344 0.0 0.0 0.00 0.00 0.00 85 1012.1
20260508043642 47 332 0.0 0.9 0.00 0.00 0.00 85 1012.0
20260508043140 47 344 0.0 0.0 0.00 0.00 0.00 81 1012.2
20260508042637 47 345 0.0 0.0 0.00 0.00 0.00 79 1012.2
20260508042134 46 344 0.0 0.0 0.00 0.00 0.00 78 1012.0
20260508041630 47 344 0.0 0.0 0.00 0.00 0.00 81 1012.2
20260508041127 47 345 0.0 0.0 0.00 0.00 0.00 79 1012.1
20260508040623 47 344 0.0 0.9 0.00 0.00 0.00 79 1012.1
20260508040121 47 344 0.0 0.0 0.00 0.00 0.00 80 1012.2
20260508035618 47 343 0.0 0.0 0.00 0.00 0.00 81 1012.4
20260508035116 47 344 0.0 0.0 0.00 0.00 0.00 82 1012.4
20260508034612 46 345 0.0 0.0 0.00 0.00 0.00 78 1012.3
20260508034109 47 346 0.0 0.0 0.00 0.00 0.00 79 1012.2
20260508033607 48 345 0.0 0.0 0.00 0.00 0.00 74 1012.3
20260508033105 48 345 0.0 0.0 0.00 0.00 0.00 74 1012.2
20260508032601 48 345 0.0 0.0 0.00 0.00 0.00 74 1012.2
20260508032059 48 345 0.0 0.0 0.00 0.00 0.00 74 1012.3
20260508031556 48 335 0.0 0.9 0.00 0.00 0.00 73 1012.2
20260508031051 48 335 0.0 0.0 0.00 0.00 0.00 72 1012.2
20260508030548 48 340 0.9 0.9 0.00 0.00 0.00 78 1012.2
20260508030047 47 348 0.0 0.0 0.00 0.00 0.00 79 1012.3
20260508025542 47 346 0.0 0.0 0.00 0.00 0.00 78 1012.4
20260508025039 47 346 0.0 0.0 0.00 0.00 0.00 76 1012.3
20260508024535 46 345 0.0 0.0 0.00 0.00 0.00 75 1012.1
20260508024032 46 345 0.0 0.0 0.00 0.00 0.00 77 1012.2
20260508023529 46 345 0.0 0.0 0.00 0.00 0.00 75 1012.2
20260508023026 46 345 0.0 0.0 0.00 0.00 0.00 74 1012.2
20260508022522 46 345 0.0 0.0 0.00 0.00 0.00 75 1012.1
20260508022019 46 345 0.0 0.0 0.00 0.00 0.00 75 1012.1
20260508021515 46 342 0.0 0.0 0.00 0.00 0.00 73 1012.2
20260508021011 47 342 0.0 0.0 0.00 0.00 0.00 72 1012.0
20260508020509 47 343 0.0 0.0 0.00 0.00 0.00 71 1011.9
20260508020006 48 343 0.0 0.0 0.00 0.00 0.00 69 1012.0
20260508015504 48 343 0.0 0.0 0.00 0.00 0.00 70 1012.1
20260508015000 48 345 0.0 0.0 0.00 0.00 0.00 68 1012.0
20260508014457 48 345 0.0 0.0 0.00 0.00 0.00 68 1012.2
20260508013953 48 345 0.0 0.0 0.00 0.00 0.00 69 1012.1
20260508013449 48 342 0.0 0.0 0.00 0.00 0.00 67 1012.0
20260508012947 48 345 0.0 0.0 0.00 0.00 0.00 67 1012.1
20260508012443 48 345 0.0 0.0 0.00 0.00 0.00 66 1012.1
20260508011941 48 345 0.0 0.0 0.00 0.00 0.00 67 1012.2
20260508011438 48 342 0.0 0.0 0.00 0.00 0.00 68 1012.1
20260508010936 48 342 0.0 0.0 0.00 0.00 0.00 67 1011.9
20260508010433 49 342 0.0 0.0 0.00 0.00 0.00 67 1011.9
20260508005930 49 345 0.0 0.0 0.00 0.00 0.00 67 1011.8
20260508005427 49 345 0.0 0.0 0.00 0.00 0.00 68 1012.0
20260508004923 50 343 0.0 0.0 0.00 0.00 0.00 66 1012.0
20260508004419 50 343 0.0 0.0 0.00 0.00 0.00 64 1011.8
20260508003916 51 345 0.0 0.0 0.00 0.00 0.00 63 1011.8
20260508003413 51 345 0.0 0.0 0.00 0.00 0.00 63 1012.0
20260508002911 51 345 0.0 0.0 0.00 0.00 0.00 60 1012.0
20260508002407 52 342 0.0 0.0 0.00 0.00 0.00 60 1011.9
20260508001903 53 339 0.0 0.0 0.00 0.00 0.00 57 1011.8
20260508001359 53 337 0.0 0.9 0.00 0.00 0.00 55 1011.9
20260508000856 53 338 0.0 0.0 0.00 0.00 0.00 59 1011.7
20260508000352 53 345 0.0 0.0 0.00 0.00 0.00 56 1011.8
20260507235848 54 339 0.0 0.0 0.00 0.00 0.00 55 1011.7
20260507235346 55 343 0.0 0.0 0.00 0.00 0.00 57 1011.5
20260507234843 55 339 0.0 0.0 0.00 0.00 0.00 55 1011.4
20260507234339 56 339 0.0 0.9 0.00 0.00 0.00 54 1011.3
20260507233836 56 339 0.0 0.0 0.00 0.00 0.00 50 1011.4
20260507233334 56 338 0.0 0.0 0.00 0.00 0.00 52 1011.3
20260507232832 56 350 0.0 0.9 0.00 0.00 0.00 51 1011.4
20260507232328 56 335 0.0 0.9 0.00 0.00 0.00 51 1011.3
20260507231825 57 344 1.7 2.6 0.00 0.00 0.00 47 1011.4
20260507231322 57 336 0.0 1.7 0.00 0.00 0.00 49 1011.6
20260507230818 57 338 0.9 2.6 0.00 0.00 0.00 51 1011.5
20260507230315 58 328 0.0 0.9 0.00 0.00 0.00 48 1011.5
20260507225810 57 323 0.9 1.7 0.00 0.00 0.00 46 1011.5
20260507225306 57 338 1.7 1.7 0.00 0.00 0.00 49 1011.4
20260507224802 57 334 0.0 2.6 0.00 0.00 0.00 48 1011.5
20260507224259 57 317 0.9 4.3 0.00 0.00 0.00 51 1011.8
20260507223755 58 269 1.7 1.7 0.00 0.00 0.00 48 1011.6
20260507223251 58 329 0.9 4.3 0.00 0.00 0.00 46 1011.8
20260507222749 57 344 0.0 4.3 0.00 0.00 0.00 51 1011.7
20260507222244 57 298 1.7 4.3 0.00 0.00 0.00 46 1011.8
20260507221742 57 340 0.9 1.7 0.00 0.00 0.00 49 1011.9
20260507221238 56 288 1.7 2.6 0.00 0.00 0.00 46 1012.0
20260507220734 56 333 2.6 2.6 0.00 0.00 0.00 48 1011.9
20260507220233 56 327 2.6 4.3 0.00 0.00 0.00 48 1011.9
20260507215728 56 314 0.9 4.3 0.00 0.00 0.00 48 1011.9
20260507215226 56 303 0.9 1.7 0.00 0.00 0.00 48 1011.8
20260507214723 56 282 1.7 2.6 0.00 0.00 0.00 49 1011.7
20260507214221 56 345 0.0 0.9 0.00 0.00 0.00 51 1011.8
20260507213716 55 327 2.6 2.6 0.00 0.00 0.00 50 1011.7
20260507213213 55 1 0.9 1.7 0.00 0.00 0.00 52 1012.0
20260507212709 56 350 0.0 0.9 0.00 0.00 0.00 52 1011.8
20260507212206 57 336 1.7 4.3 0.00 0.00 0.00 50 1011.7
20260507211703 58 339 0.9 5.2 0.00 0.00 0.00 48 1011.6
20260507211158 59 294 0.9 1.7 0.00 0.00 0.00 46 1011.5
20260507210656 58 343 0.9 5.2 0.00 0.00 0.00 48 1011.7
20260507210152 57 294 0.9 2.6 0.00 0.00 0.00 48 1011.3
20260507205649 55 280 3.5 7.0 0.00 0.00 0.00 50 1011.6
20260507205146 57 339 1.7 2.6 0.00 0.00 0.00 51 1011.4
20260507204642 58 339 0.0 1.7 0.00 0.00 0.00 51 1011.5
20260507204140 56 327 0.0 1.7 0.00 0.00 0.00 51 1011.6
20260507203638 58 348 2.6 4.3 0.00 0.00 0.00 48 1011.5
20260507203135 57 334 0.0 2.6 0.00 0.00 0.00 55 1011.6
20260507202630 57 21 1.7 2.6 0.00 0.00 0.00 50 1011.5
20260507202127 57 328 2.6 4.3 0.00 0.00 0.00 49 1011.4
20260507201622 57 352 2.6 6.1 0.00 0.00 0.00 50 1011.5
20260507201119 58 86 0.9 2.6 0.00 0.00 0.00 50 1011.3
20260507200615 58 7 1.7 7.0 0.00 0.00 0.00 53 1011.6
20260507200111 58 328 0.9 7.0 0.00 0.00 0.00 51 1011.9
20260507195609 58 324 0.9 5.2 0.00 0.00 0.00 53 1011.6
20260507195106 57 329 0.9 2.6 0.00 0.00 0.00 49 1011.7
20260507194602 58 287 2.6 5.2 0.00 0.00 0.00 53 1011.7
20260507194057 57 7 3.5 6.1 0.00 0.00 0.00 52 1011.5
20260507193555 56 344 2.6 7.8 0.00 0.00 0.00 54 1011.6
20260507193052 55 297 1.7 2.6 0.00 0.00 0.00 54 1011.9
20260507192548 56 2 1.7 5.2 0.00 0.00 0.00 55 1011.9
20260507192045 57 332 0.9 4.3 0.00 0.00 0.00 52 1011.7
20260507191540 56 80 3.5 5.2 0.00 0.00 0.00 53 1011.7
20260507191038 58 344 0.9 5.2 0.00 0.00 0.00 52 1011.6
20260507190535 56 283 2.6 4.3 0.00 0.00 0.00 55 1011.9
20260507190034 56 298 2.6 2.6 0.00 0.00 0.00 53 1011.9
20260507185532 56 319 0.9 2.6 0.00 0.00 0.00 57 1011.9